| time (UTC) | temp C | wind direction | speed KPH | gust KPH | rain 1hr cm | rain 24hr cm | rain mn cm | humidity % | barometer mb |
| 20260906172054 | 36 | 117 | 1.6 | 3.2 | 0.00 | 0.00 | 0.00 | 38 | 1017.8 |
| 20260906171553 | 36 | 205 | 1.6 | 3.2 | 0.00 | 0.00 | 0.00 | 37 | 1017.8 |
| 20260906171049 | 36 | 126 | 0.0 | 1.6 | 0.00 | 0.00 | 0.00 | 39 | 1018.1 |
| 20260906170544 | 36 | 154 | 1.6 | 1.6 | 0.00 | 0.00 | 0.00 | 40 | 1018.1 |
| 20260906170043 | 36 | 132 | 1.6 | 1.6 | 0.00 | 0.00 | 0.00 | 42 | 1018.2 |
| 20260906165541 | 35 | 197 | 0.0 | 3.2 | 0.00 | 0.00 | 0.00 | 44 | 1018.0 |
| 20260906165035 | 35 | 175 | 0.0 | 1.6 | 0.00 | 0.00 | 0.00 | 44 | 1018.0 |
| 20260906164534 | 35 | 156 | 1.6 | 1.6 | 0.00 | 0.00 | 0.00 | 43 | 1018.2 |
| 20260906164031 | 35 | 127 | 1.6 | 4.8 | 0.00 | 0.00 | 0.00 | 42 | 1018.3 |
| 20260906163526 | 35 | 131 | 0.0 | 1.6 | 0.00 | 0.00 | 0.00 | 44 | 1018.3 |
| 20260906163021 | 35 | 131 | 1.6 | 1.6 | 0.00 | 0.00 | 0.00 | 44 | 1018.3 |
| 20260906162518 | 34 | 155 | 0.0 | 1.6 | 0.00 | 0.00 | 0.00 | 46 | 1018.2 |
| 20260906162013 | 34 | 130 | 0.0 | 0.0 | 0.00 | 0.00 | 0.00 | 48 | 1018.3 |
| 20260906161509 | 33 | 181 | 1.6 | 3.2 | 0.00 | 0.00 | 0.00 | 45 | 1018.3 |
| 20260906161007 | 33 | 147 | 1.6 | 1.6 | 0.00 | 0.00 | 0.00 | 49 | 1018.3 |
| 20260906160501 | 33 | 197 | 0.0 | 0.0 | 0.00 | 0.00 | 0.00 | 51 | 1018.3 |
| 20260906155958 | 33 | 191 | 3.2 | 3.2 | 0.00 | 0.00 | 0.00 | 51 | 1018.4 |
| 20260906155457 | 32 | 188 | 1.6 | 1.6 | 0.00 | 0.00 | 0.00 | 50 | 1018.3 |
| 20260906154948 | 32 | 189 | 0.0 | 1.6 | 0.00 | 0.00 | 0.00 | 50 | 1018.4 |
| 20260906154443 | 32 | 143 | 3.2 | 3.2 | 0.00 | 0.00 | 0.00 | 51 | 1018.2 |
| 20260906153941 | 32 | 143 | 0.0 | 0.0 | 0.00 | 0.00 | 0.00 | 53 | 1018.4 |
| 20260906153440 | 32 | 143 | 0.0 | 0.0 | 0.00 | 0.00 | 0.00 | 53 | 1018.3 |
| 20260906152936 | 31 | 143 | 0.0 | 0.0 | 0.00 | 0.00 | 0.00 | 56 | 1018.4 |
| 20260906152436 | 31 | 143 | 0.0 | 1.6 | 0.00 | 0.00 | 0.00 | 54 | 1018.2 |
| 20260906151935 | 31 | 143 | 0.0 | 0.0 | 0.00 | 0.00 | 0.00 | 56 | 1018.4 |
| 20260906151430 | 30 | 143 | 0.0 | 0.0 | 0.00 | 0.00 | 0.00 | 57 | 1018.3 |
| 20260906150926 | 30 | 143 | 0.0 | 0.0 | 0.00 | 0.00 | 0.00 | 58 | 1018.3 |
| 20260906150421 | 30 | 142 | 0.0 | 1.6 | 0.00 | 0.00 | 0.00 | 58 | 1018.2 |
| 20260906145920 | 30 | 143 | 1.6 | 1.6 | 0.00 | 0.00 | 0.00 | 61 | 1018.1 |
| 20260906145414 | 29 | 143 | 1.6 | 3.2 | 0.00 | 0.00 | 0.00 | 61 | 1018.2 |
| 20260906144909 | 28 | 142 | 0.0 | 0.0 | 0.00 | 0.00 | 0.00 | 65 | 1018.2 |
| 20260906144403 | 28 | 135 | 0.0 | 0.0 | 0.00 | 0.00 | 0.00 | 67 | 1018.1 |
| 20260906143859 | 28 | 135 | 0.0 | 0.0 | 0.00 | 0.00 | 0.00 | 68 | 1018.4 |
| 20260906143354 | 27 | 135 | 0.0 | 0.0 | 0.00 | 0.00 | 0.00 | 70 | 1018.2 |
| 20260906142850 | 27 | 135 | 0.0 | 0.0 | 0.00 | 0.00 | 0.00 | 72 | 1018.2 |
| 20260906142344 | 27 | 134 | 0.0 | 0.0 | 0.00 | 0.00 | 0.00 | 71 | 1018.3 |
| 20260906141844 | 27 | 135 | 0.0 | 0.0 | 0.00 | 0.00 | 0.00 | 74 | 1018.2 |
| 20260906141333 | 26 | 134 | 0.0 | 0.0 | 0.00 | 0.00 | 0.00 | 74 | 1018.4 |
| 20260906140832 | 26 | 134 | 0.0 | 0.0 | 0.00 | 0.00 | 0.00 | 76 | 1018.5 |
| 20260906140327 | 26 | 133 | 0.0 | 0.0 | 0.00 | 0.00 | 0.00 | 77 | 1018.3 |
| 20260906135825 | 25 | 133 | 0.0 | 0.0 | 0.00 | 0.00 | 0.00 | 79 | 1018.1 |
| 20260906135320 | 25 | 133 | 0.0 | 0.0 | 0.00 | 0.00 | 0.00 | 80 | 1018.1 |
| 20260906134815 | 25 | 132 | 0.0 | 0.0 | 0.00 | 0.00 | 0.00 | 81 | 1018.1 |
| 20260906134311 | 24 | 133 | 0.0 | 0.0 | 0.00 | 0.00 | 0.00 | 82 | 1018.2 |
| 20260906133806 | 24 | 132 | 0.0 | 0.0 | 0.00 | 0.00 | 0.00 | 83 | 1018.1 |
| 20260906133301 | 23 | 132 | 0.0 | 0.0 | 0.00 | 0.00 | 0.00 | 84 | 1018.1 |
| 20260906132757 | 23 | 133 | 0.0 | 0.0 | 0.00 | 0.00 | 0.00 | 84 | 1018.1 |
| 20260906132252 | 23 | 132 | 0.0 | 0.0 | 0.00 | 0.00 | 0.00 | 84 | 1018.1 |
| 20260906131747 | 23 | 132 | 0.0 | 0.0 | 0.00 | 0.00 | 0.00 | 85 | 1018.2 |
| 20260906131242 | 23 | 132 | 0.0 | 0.0 | 0.00 | 0.00 | 0.00 | 85 | 1018.1 |
| 20260906130737 | 22 | 133 | 0.0 | 0.0 | 0.00 | 0.00 | 0.00 | 86 | 1018.1 |
| 20260906130232 | 22 | 132 | 0.0 | 0.0 | 0.00 | 0.00 | 0.00 | 87 | 1018.0 |
| 20260906125731 | 22 | 132 | 0.0 | 0.0 | 0.00 | 0.00 | 0.00 | 87 | 1017.8 |
| 20260906125229 | 22 | 132 | 0.0 | 0.0 | 0.00 | 0.00 | 0.00 | 88 | 1017.8 |
| 20260906124724 | 22 | 133 | 0.0 | 0.0 | 0.00 | 0.00 | 0.00 | 87 | 1017.8 |
| 20260906124220 | 22 | 133 | 0.0 | 0.0 | 0.00 | 0.00 | 0.00 | 88 | 1017.9 |
| 20260906123718 | 22 | 132 | 0.0 | 0.0 | 0.00 | 0.00 | 0.00 | 87 | 1017.6 |
| 20260906123214 | 22 | 132 | 0.0 | 0.0 | 0.00 | 0.00 | 0.00 | 87 | 1017.6 |
| 20260906122713 | 22 | 132 | 0.0 | 0.0 | 0.00 | 0.00 | 0.00 | 87 | 1017.6 |
| 20260906122209 | 22 | 132 | 0.0 | 0.0 | 0.00 | 0.00 | 0.00 | 87 | 1017.4 |
| 20260906121705 | 22 | 132 | 0.0 | 0.0 | 0.00 | 0.00 | 0.00 | 87 | 1017.6 |
| 20260906121201 | 22 | 132 | 0.0 | 0.0 | 0.00 | 0.00 | 0.00 | 86 | 1017.2 |
| 20260906120656 | 22 | 132 | 0.0 | 0.0 | 0.00 | 0.00 | 0.00 | 86 | 1017.4 |
| 20260906120153 | 22 | 132 | 0.0 | 0.0 | 0.00 | 0.00 | 0.00 | 87 | 1017.3 |
| 20260906115648 | 22 | 132 | 0.0 | 0.0 | 0.00 | 0.00 | 0.00 | 88 | 1017.2 |
| 20260906115144 | 22 | 132 | 0.0 | 0.0 | 0.00 | 0.00 | 0.00 | 87 | 1017.2 |
| 20260906114642 | 22 | 132 | 0.0 | 0.0 | 0.00 | 0.00 | 0.00 | 88 | 1016.8 |
| 20260906114137 | 22 | 132 | 0.0 | 0.0 | 0.00 | 0.00 | 0.00 | 88 | 1017.0 |
| 20260906113632 | 22 | 132 | 0.0 | 0.0 | 0.00 | 0.00 | 0.00 | 88 | 1016.9 |
| 20260906113126 | 22 | 132 | 0.0 | 0.0 | 0.00 | 0.00 | 0.00 | 88 | 1017.0 |
| 20260906112626 | 22 | 132 | 0.0 | 0.0 | 0.00 | 0.00 | 0.00 | 88 | 1016.8 |
| 20260906112123 | 22 | 132 | 0.0 | 0.0 | 0.00 | 0.00 | 0.00 | 88 | 1016.9 |
| 20260906111622 | 22 | 132 | 0.0 | 0.0 | 0.00 | 0.00 | 0.00 | 88 | 1016.8 |
| 20260906111118 | 22 | 132 | 0.0 | 0.0 | 0.00 | 0.00 | 0.00 | 88 | 1016.8 |
| 20260906110618 | 22 | 132 | 0.0 | 0.0 | 0.00 | 0.00 | 0.00 | 88 | 1016.9 |
| 20260906110112 | 22 | 132 | 0.0 | 0.0 | 0.00 | 0.00 | 0.00 | 87 | 1016.8 |
| 20260906105607 | 22 | 132 | 0.0 | 0.0 | 0.00 | 0.00 | 0.00 | 87 | 1016.8 |
| 20260906105103 | 22 | 132 | 0.0 | 0.0 | 0.00 | 0.00 | 0.00 | 87 | 1016.9 |
| 20260906104602 | 22 | 132 | 0.0 | 0.0 | 0.00 | 0.00 | 0.00 | 87 | 1016.8 |
| 20260906104056 | 22 | 132 | 0.0 | 0.0 | 0.00 | 0.00 | 0.00 | 86 | 1016.7 |
| 20260906103554 | 22 | 132 | 0.0 | 0.0 | 0.00 | 0.00 | 0.00 | 85 | 1016.7 |
| 20260906103050 | 22 | 132 | 0.0 | 0.0 | 0.00 | 0.00 | 0.00 | 85 | 1016.8 |
| 20260906102549 | 22 | 132 | 0.0 | 0.0 | 0.00 | 0.00 | 0.00 | 85 | 1016.8 |
| 20260906102045 | 23 | 132 | 0.0 | 0.0 | 0.00 | 0.00 | 0.00 | 84 | 1016.7 |
| 20260906101539 | 23 | 132 | 0.0 | 0.0 | 0.00 | 0.00 | 0.00 | 84 | 1016.8 |
| 20260906101033 | 23 | 132 | 0.0 | 0.0 | 0.00 | 0.00 | 0.00 | 84 | 1016.7 |
| 20260906100530 | 23 | 132 | 0.0 | 0.0 | 0.00 | 0.00 | 0.00 | 83 | 1016.5 |
| 20260906100030 | 23 | 132 | 0.0 | 0.0 | 0.00 | 0.00 | 0.00 | 83 | 1016.7 |
| 20260906095524 | 23 | 132 | 0.0 | 0.0 | 0.00 | 0.00 | 0.00 | 83 | 1016.6 |
| 20260906095020 | 23 | 132 | 0.0 | 0.0 | 0.00 | 0.00 | 0.00 | 83 | 1016.6 |
| 20260906094518 | 23 | 132 | 0.0 | 0.0 | 0.00 | 0.00 | 0.00 | 83 | 1016.6 |
| 20260906094015 | 23 | 132 | 0.0 | 0.0 | 0.00 | 0.00 | 0.00 | 84 | 1016.4 |
| 20260906093510 | 23 | 132 | 0.0 | 0.0 | 0.00 | 0.00 | 0.00 | 83 | 1016.5 |
| 20260906093005 | 23 | 132 | 0.0 | 0.0 | 0.00 | 0.00 | 0.00 | 83 | 1016.7 |
| 20260906092459 | 23 | 132 | 0.0 | 0.0 | 0.00 | 0.00 | 0.00 | 84 | 1016.4 |
| 20260906091955 | 23 | 132 | 0.0 | 0.0 | 0.00 | 0.00 | 0.00 | 83 | 1016.6 |
| 20260906091450 | 23 | 132 | 0.0 | 0.0 | 0.00 | 0.00 | 0.00 | 83 | 1016.4 |
| 20260906090947 | 23 | 132 | 0.0 | 0.0 | 0.00 | 0.00 | 0.00 | 83 | 1016.5 |
| 20260906090442 | 23 | 132 | 0.0 | 0.0 | 0.00 | 0.00 | 0.00 | 83 | 1016.6 |
| 20260906085942 | 23 | 132 | 0.0 | 0.0 | 0.00 | 0.00 | 0.00 | 82 | 1016.5 |
| 20260906085441 | 23 | 132 | 0.0 | 0.0 | 0.00 | 0.00 | 0.00 | 82 | 1016.5 |
| 20260906084940 | 23 | 132 | 0.0 | 0.0 | 0.00 | 0.00 | 0.00 | 81 | 1016.4 |
| 20260906084435 | 23 | 132 | 0.0 | 0.0 | 0.00 | 0.00 | 0.00 | 81 | 1016.5 |
| 20260906083934 | 23 | 132 | 0.0 | 0.0 | 0.00 | 0.00 | 0.00 | 81 | 1016.4 |
| 20260906083430 | 23 | 132 | 0.0 | 0.0 | 0.00 | 0.00 | 0.00 | 80 | 1016.2 |
| 20260906082929 | 23 | 132 | 0.0 | 0.0 | 0.00 | 0.00 | 0.00 | 80 | 1016.3 |
| 20260906082425 | 23 | 132 | 0.0 | 0.0 | 0.00 | 0.00 | 0.00 | 79 | 1016.6 |
| 20260906081920 | 23 | 132 | 0.0 | 0.0 | 0.00 | 0.00 | 0.00 | 80 | 1016.5 |
| 20260906081415 | 23 | 132 | 0.0 | 0.0 | 0.00 | 0.00 | 0.00 | 79 | 1016.4 |
| 20260906080912 | 23 | 132 | 0.0 | 0.0 | 0.00 | 0.00 | 0.00 | 79 | 1016.3 |
| 20260906080408 | 23 | 132 | 0.0 | 0.0 | 0.00 | 0.00 | 0.00 | 79 | 1016.4 |
| 20260906075907 | 23 | 132 | 0.0 | 0.0 | 0.00 | 0.00 | 0.00 | 79 | 1016.5 |
| 20260906075402 | 24 | 132 | 0.0 | 0.0 | 0.00 | 0.00 | 0.00 | 79 | 1016.2 |
| 20260906074858 | 24 | 132 | 0.0 | 0.0 | 0.00 | 0.00 | 0.00 | 79 | 1016.5 |
| 20260906074357 | 24 | 132 | 0.0 | 0.0 | 0.00 | 0.00 | 0.00 | 78 | 1016.4 |
| 20260906073856 | 24 | 132 | 0.0 | 0.0 | 0.00 | 0.00 | 0.00 | 78 | 1016.3 |
| 20260906073351 | 24 | 132 | 0.0 | 0.0 | 0.00 | 0.00 | 0.00 | 78 | 1016.3 |
| 20260906072847 | 25 | 132 | 0.0 | 0.0 | 0.00 | 0.00 | 0.00 | 78 | 1016.4 |
| 20260906072343 | 25 | 132 | 0.0 | 0.0 | 0.00 | 0.00 | 0.00 | 76 | 1016.5 |
| 20260906071839 | 25 | 132 | 0.0 | 0.0 | 0.00 | 0.00 | 0.00 | 76 | 1016.4 |
| 20260906071334 | 25 | 132 | 0.0 | 0.0 | 0.00 | 0.00 | 0.00 | 76 | 1016.4 |
| 20260906070830 | 25 | 132 | 0.0 | 0.0 | 0.00 | 0.00 | 0.00 | 76 | 1016.5 |
| 20260906070325 | 25 | 132 | 0.0 | 0.0 | 0.00 | 0.00 | 0.00 | 76 | 1016.4 |
| 20260906065820 | 25 | 132 | 0.0 | 0.0 | 0.00 | 0.00 | 0.00 | 76 | 1016.6 |
| 20260906065315 | 25 | 132 | 0.0 | 0.0 | 0.00 | 0.00 | 0.00 | 76 | 1016.6 |
| 20260906064811 | 25 | 132 | 0.0 | 0.0 | 0.00 | 0.00 | 0.00 | 75 | 1016.3 |
| 20260906064306 | 25 | 132 | 0.0 | 0.0 | 0.00 | 0.00 | 0.00 | 75 | 1016.3 |
| 20260906063801 | 25 | 132 | 0.0 | 0.0 | 0.00 | 0.00 | 0.00 | 76 | 1016.5 |
| 20260906063257 | 25 | 132 | 0.0 | 0.0 | 0.00 | 0.00 | 0.00 | 75 | 1016.7 |
| 20260906062752 | 25 | 132 | 0.0 | 0.0 | 0.00 | 0.00 | 0.00 | 75 | 1016.5 |
| 20260906062251 | 25 | 132 | 0.0 | 0.0 | 0.00 | 0.00 | 0.00 | 75 | 1016.7 |
| 20260906061746 | 25 | 132 | 0.0 | 0.0 | 0.00 | 0.00 | 0.00 | 75 | 1016.6 |
| 20260906061243 | 25 | 132 | 0.0 | 0.0 | 0.00 | 0.00 | 0.00 | 74 | 1016.5 |
| 20260906060738 | 25 | 132 | 0.0 | 0.0 | 0.00 | 0.00 | 0.00 | 74 | 1016.3 |
| 20260906060236 | 25 | 132 | 0.0 | 0.0 | 0.00 | 0.00 | 0.00 | 75 | 1016.6 |
| 20260906055731 | 25 | 132 | 0.0 | 0.0 | 0.00 | 0.00 | 0.00 | 74 | 1016.7 |
| 20260906055226 | 25 | 132 | 0.0 | 0.0 | 0.00 | 0.00 | 0.00 | 74 | 1016.6 |
| 20260906054721 | 25 | 132 | 0.0 | 0.0 | 0.00 | 0.00 | 0.00 | 74 | 1016.4 |
| 20260906054216 | 25 | 132 | 0.0 | 0.0 | 0.00 | 0.00 | 0.00 | 73 | 1016.6 |
| 20260906053713 | 25 | 132 | 0.0 | 0.0 | 0.00 | 0.00 | 0.00 | 73 | 1016.6 |
| 20260906053208 | 25 | 132 | 0.0 | 0.0 | 0.00 | 0.00 | 0.00 | 72 | 1016.4 |
| 20260906052703 | 25 | 132 | 0.0 | 0.0 | 0.00 | 0.00 | 0.00 | 71 | 1016.6 |
| 20260906052159 | 25 | 132 | 0.0 | 0.0 | 0.00 | 0.00 | 0.00 | 71 | 1016.3 |
| 20260906051656 | 25 | 132 | 0.0 | 0.0 | 0.00 | 0.00 | 0.00 | 71 | 1016.4 |
| 20260906051155 | 25 | 132 | 0.0 | 0.0 | 0.00 | 0.00 | 0.00 | 71 | 1016.5 |
| 20260906050651 | 25 | 132 | 0.0 | 0.0 | 0.00 | 0.00 | 0.00 | 71 | 1016.4 |
| 20260906050146 | 25 | 132 | 0.0 | 0.0 | 0.00 | 0.00 | 0.00 | 72 | 1016.4 |
| 20260906045644 | 25 | 132 | 0.0 | 0.0 | 0.00 | 0.00 | 0.00 | 72 | 1016.4 |
| 20260906045140 | 26 | 132 | 0.0 | 0.0 | 0.00 | 0.00 | 0.00 | 72 | 1016.4 |
| 20260906044636 | 26 | 132 | 0.0 | 0.0 | 0.00 | 0.00 | 0.00 | 72 | 1016.4 |
| 20260906044131 | 26 | 132 | 0.0 | 0.0 | 0.00 | 0.00 | 0.00 | 71 | 1016.2 |
| 20260906043627 | 26 | 132 | 0.0 | 0.0 | 0.00 | 0.00 | 0.00 | 72 | 1016.3 |
| 20260906043122 | 26 | 132 | 0.0 | 0.0 | 0.00 | 0.00 | 0.00 | 72 | 1016.3 |
| 20260906042621 | 26 | 132 | 0.0 | 0.0 | 0.00 | 0.00 | 0.00 | 71 | 1016.5 |
| 20260906042115 | 26 | 132 | 0.0 | 0.0 | 0.00 | 0.00 | 0.00 | 71 | 1016.4 |
| 20260906041612 | 26 | 132 | 0.0 | 0.0 | 0.00 | 0.00 | 0.00 | 70 | 1016.5 |
| 20260906041106 | 26 | 132 | 0.0 | 0.0 | 0.00 | 0.00 | 0.00 | 70 | 1016.6 |
| 20260906040602 | 26 | 132 | 0.0 | 0.0 | 0.00 | 0.00 | 0.00 | 69 | 1016.5 |
| 20260906040057 | 26 | 132 | 0.0 | 0.0 | 0.00 | 0.00 | 0.00 | 69 | 1016.3 |
| 20260906035552 | 26 | 132 | 0.0 | 0.0 | 0.00 | 0.00 | 0.00 | 68 | 1016.5 |
| 20260906035048 | 26 | 132 | 0.0 | 0.0 | 0.00 | 0.00 | 0.00 | 68 | 1016.2 |
| 20260906034547 | 26 | 132 | 0.0 | 0.0 | 0.00 | 0.00 | 0.00 | 68 | 1016.5 |
| 20260906034037 | 27 | 132 | 0.0 | 0.0 | 0.00 | 0.00 | 0.00 | 68 | 1016.5 |
| 20260906033532 | 27 | 132 | 0.0 | 0.0 | 0.00 | 0.00 | 0.00 | 67 | 1016.4 |
| 20260906033028 | 27 | 132 | 0.0 | 0.0 | 0.00 | 0.00 | 0.00 | 67 | 1016.5 |
| 20260906032524 | 27 | 132 | 0.0 | 0.0 | 0.00 | 0.00 | 0.00 | 67 | 1016.3 |
| 20260906032018 | 27 | 132 | 0.0 | 0.0 | 0.00 | 0.00 | 0.00 | 65 | 1016.3 |
| 20260906031514 | 27 | 132 | 0.0 | 0.0 | 0.00 | 0.00 | 0.00 | 65 | 1016.2 |
| 20260906031010 | 27 | 132 | 0.0 | 0.0 | 0.00 | 0.00 | 0.00 | 65 | 1016.3 |
| 20260906030509 | 27 | 132 | 0.0 | 0.0 | 0.00 | 0.00 | 0.00 | 64 | 1016.2 |
| 20260906030008 | 27 | 132 | 0.0 | 0.0 | 0.00 | 0.00 | 0.00 | 63 | 1016.1 |
| 20260906025508 | 28 | 132 | 0.0 | 0.0 | 0.00 | 0.00 | 0.00 | 63 | 1016.2 |
| 20260906025006 | 28 | 132 | 0.0 | 0.0 | 0.00 | 0.00 | 0.00 | 62 | 1016.2 |
| 20260906024501 | 28 | 132 | 0.0 | 0.0 | 0.00 | 0.00 | 0.00 | 61 | 1016.1 |
| 20260906023956 | 28 | 132 | 0.0 | 0.0 | 0.00 | 0.00 | 0.00 | 61 | 1016.0 |
| 20260906023452 | 28 | 132 | 0.0 | 0.0 | 0.00 | 0.00 | 0.00 | 61 | 1015.8 |
| 20260906022947 | 28 | 132 | 0.0 | 0.0 | 0.00 | 0.00 | 0.00 | 60 | 1015.8 |
| 20260906022443 | 28 | 132 | 0.0 | 0.0 | 0.00 | 0.00 | 0.00 | 60 | 1015.9 |
| 20260906021937 | 28 | 133 | 0.0 | 0.0 | 0.00 | 0.00 | 0.00 | 59 | 1015.8 |
| 20260906021432 | 29 | 133 | 0.0 | 0.0 | 0.00 | 0.00 | 0.00 | 58 | 1015.7 |
| 20260906020932 | 29 | 132 | 0.0 | 0.0 | 0.00 | 0.00 | 0.00 | 57 | 1015.8 |
| 20260906020427 | 30 | 132 | 0.0 | 0.0 | 0.00 | 0.00 | 0.00 | 57 | 1015.6 |
| 20260906015921 | 30 | 132 | 0.0 | 0.0 | 0.00 | 0.00 | 0.00 | 55 | 1015.6 |
| 20260906015420 | 30 | 132 | 0.0 | 0.0 | 0.00 | 0.00 | 0.00 | 54 | 1015.5 |
| 20260906014915 | 30 | 133 | 0.0 | 0.0 | 0.00 | 0.00 | 0.00 | 53 | 1015.3 |
| 20260906014414 | 31 | 133 | 0.0 | 0.0 | 0.00 | 0.00 | 0.00 | 52 | 1015.3 |
| 20260906013911 | 31 | 132 | 3.2 | 3.2 | 0.00 | 0.00 | 0.00 | 51 | 1015.4 |
| 20260906013406 | 31 | 133 | 1.6 | 3.2 | 0.00 | 0.00 | 0.00 | 50 | 1015.2 |
| 20260906012902 | 31 | 133 | 0.0 | 3.2 | 0.00 | 0.00 | 0.00 | 50 | 1015.4 |
| 20260906012356 | 31 | 133 | 1.6 | 1.6 | 0.00 | 0.00 | 0.00 | 50 | 1015.2 |
| 20260906011856 | 31 | 134 | 0.0 | 0.0 | 0.00 | 0.00 | 0.00 | 50 | 1015.2 |
| 20260906011356 | 31 | 134 | 0.0 | 0.0 | 0.00 | 0.00 | 0.00 | 50 | 1015.2 |
| 20260906010852 | 31 | 136 | 0.0 | 0.0 | 0.00 | 0.00 | 0.00 | 51 | 1015.2 |
| 20260906010348 | 31 | 137 | 0.0 | 0.0 | 0.00 | 0.00 | 0.00 | 51 | 1015.2 |
| 20260906005843 | 31 | 136 | 0.0 | 0.0 | 0.00 | 0.00 | 0.00 | 51 | 1014.9 |
| 20260906005342 | 31 | 136 | 0.0 | 0.0 | 0.00 | 0.00 | 0.00 | 49 | 1014.6 |
| 20260906004841 | 32 | 137 | 0.0 | 0.0 | 0.00 | 0.00 | 0.00 | 49 | 1015.0 |
| 20260906004336 | 32 | 136 | 0.0 | 0.0 | 0.00 | 0.00 | 0.00 | 49 | 1014.9 |
| 20260906003831 | 32 | 137 | 0.0 | 0.0 | 0.00 | 0.00 | 0.00 | 47 | 1014.8 |
| 20260906003327 | 32 | 136 | 0.0 | 0.0 | 0.00 | 0.00 | 0.00 | 46 | 1015.2 |
| 20260906002822 | 32 | 136 | 0.0 | 0.0 | 0.00 | 0.00 | 0.00 | 47 | 1015.0 |
| 20260906002321 | 33 | 136 | 0.0 | 0.0 | 0.00 | 0.00 | 0.00 | 46 | 1015.0 |
| 20260906001818 | 33 | 137 | 0.0 | 0.0 | 0.00 | 0.00 | 0.00 | 46 | 1014.9 |
| 20260906001312 | 33 | 137 | 0.0 | 0.0 | 0.00 | 0.00 | 0.00 | 45 | 1014.8 |
| 20260906000807 | 33 | 135 | 1.6 | 1.6 | 0.00 | 0.00 | 0.00 | 41 | 1014.8 |
| 20260906000303 | 34 | 142 | 0.0 | 0.0 | 0.00 | 0.00 | 0.00 | 40 | 1014.9 |
| 20260905235757 | 34 | 142 | 0.0 | 0.0 | 0.00 | 0.00 | 0.00 | 40 | 1015.0 |
| 20260905235256 | 34 | 142 | 0.0 | 0.0 | 0.00 | 0.00 | 0.00 | 40 | 1014.9 |
| 20260905234752 | 34 | 142 | 0.0 | 0.0 | 0.00 | 0.00 | 0.00 | 38 | 1014.9 |
| 20260905234247 | 35 | 142 | 0.0 | 0.0 | 0.00 | 0.00 | 0.00 | 38 | 1014.8 |
| 20260905233743 | 35 | 142 | 0.0 | 0.0 | 0.00 | 0.00 | 0.00 | 37 | 1014.9 |
| 20260905233241 | 35 | 142 | 0.0 | 0.0 | 0.00 | 0.00 | 0.00 | 37 | 1014.8 |
| 20260905232736 | 35 | 142 | 0.0 | 0.0 | 0.00 | 0.00 | 0.00 | 35 | 1014.8 |
| 20260905232232 | 35 | 142 | 0.0 | 0.0 | 0.00 | 0.00 | 0.00 | 35 | 1014.8 |
| 20260905231728 | 35 | 142 | 0.0 | 0.0 | 0.00 | 0.00 | 0.00 | 35 | 1014.9 |
| 20260905231223 | 35 | 142 | 0.0 | 0.0 | 0.00 | 0.00 | 0.00 | 35 | 1014.9 |
| 20260905230719 | 35 | 142 | 0.0 | 0.0 | 0.00 | 0.00 | 0.00 | 35 | 1014.8 |
| 20260905230216 | 35 | 142 | 0.0 | 0.0 | 0.00 | 0.00 | 0.00 | 35 | 1014.8 |
| 20260905225711 | 36 | 142 | 0.0 | 0.0 | 0.00 | 0.00 | 0.00 | 33 | 1014.8 |
| 20260905225206 | 36 | 142 | 0.0 | 0.0 | 0.00 | 0.00 | 0.00 | 32 | 1014.7 |
| 20260905224705 | 36 | 137 | 0.0 | 0.0 | 0.00 | 0.00 | 0.00 | 32 | 1014.8 |
| 20260905224201 | 36 | 156 | 1.6 | 1.6 | 0.00 | 0.00 | 0.00 | 32 | 1014.8 |
| 20260905223657 | 36 | 155 | 0.0 | 0.0 | 0.00 | 0.00 | 0.00 | 33 | 1014.6 |
| 20260905223153 | 36 | 151 | 0.0 | 0.0 | 0.00 | 0.00 | 0.00 | 33 | 1014.7 |
| 20260905222648 | 36 | 151 | 0.0 | 0.0 | 0.00 | 0.00 | 0.00 | 33 | 1014.9 |
| 20260905222143 | 36 | 152 | 0.0 | 0.0 | 0.00 | 0.00 | 0.00 | 32 | 1014.7 |
| 20260905221638 | 36 | 151 | 0.0 | 3.2 | 0.00 | 0.00 | 0.00 | 32 | 1014.9 |
| 20260905221135 | 36 | 140 | 0.0 | 0.0 | 0.00 | 0.00 | 0.00 | 31 | 1014.7 |
| 20260905220631 | 36 | 171 | 1.6 | 3.2 | 0.00 | 0.00 | 0.00 | 32 | 1014.8 |
| 20260905220127 | 36 | 160 | 0.0 | 0.0 | 0.00 | 0.00 | 0.00 | 33 | 1014.9 |
| 20260905215626 | 36 | 160 | 0.0 | 0.0 | 0.00 | 0.00 | 0.00 | 31 | 1014.9 |
| 20260905215122 | 36 | 160 | 0.0 | 1.6 | 0.00 | 0.00 | 0.00 | 31 | 1014.8 |
| 20260905214618 | 36 | 160 | 0.0 | 3.2 | 0.00 | 0.00 | 0.00 | 32 | 1015.1 |
| 20260905214118 | 36 | 143 | 1.6 | 1.6 | 0.00 | 0.00 | 0.00 | 33 | 1015.1 |
| 20260905213613 | 36 | 134 | 0.0 | 0.0 | 0.00 | 0.00 | 0.00 | 34 | 1015.0 |
| 20260905213108 | 36 | 135 | 0.0 | 3.2 | 0.00 | 0.00 | 0.00 | 34 | 1015.1 |
| 20260905212603 | 36 | 155 | 0.0 | 1.6 | 0.00 | 0.00 | 0.00 | 35 | 1014.9 |
| 20260905212102 | 36 | 177 | 0.0 | 0.0 | 0.00 | 0.00 | 0.00 | 34 | 1015.3 |
| 20260905211558 | 36 | 191 | 0.0 | 1.6 | 0.00 | 0.00 | 0.00 | 36 | 1015.2 |
| 20260905211053 | 36 | 192 | 1.6 | 1.6 | 0.00 | 0.00 | 0.00 | 36 | 1015.3 |
| 20260905210549 | 36 | 170 | 0.0 | 0.0 | 0.00 | 0.00 | 0.00 | 36 | 1015.4 |
| 20260905210043 | 36 | 148 | 1.6 | 1.6 | 0.00 | 0.00 | 0.00 | 36 | 1015.6 |
| 20260905205543 | 36 | 150 | 0.0 | 1.6 | 0.00 | 0.00 | 0.00 | 36 | 1015.6 |
| 20260905205037 | 36 | 149 | 0.0 | 1.6 | 0.00 | 0.00 | 0.00 | 37 | 1015.5 |
| 20260905204532 | 36 | 145 | 1.6 | 1.6 | 0.00 | 0.00 | 0.00 | 36 | 1015.8 |
| 20260905204027 | 36 | 206 | 3.2 | 3.2 | 0.00 | 0.00 | 0.00 | 35 | 1015.7 |
| 20260905203527 | 36 | 210 | 1.6 | 3.2 | 0.00 | 0.00 | 0.00 | 34 | 1015.9 |
| 20260905203022 | 36 | 192 | 1.6 | 1.6 | 0.00 | 0.00 | 0.00 | 36 | 1015.9 |
| 20260905202517 | 36 | 194 | 1.6 | 1.6 | 0.00 | 0.00 | 0.00 | 35 | 1015.8 |
| 20260905202012 | 36 | 141 | 0.0 | 0.0 | 0.00 | 0.00 | 0.00 | 35 | 1016.1 |
| 20260905201508 | 36 | 134 | 3.2 | 4.8 | 0.00 | 0.00 | 0.00 | 34 | 1016.2 |
| 20260905201002 | 36 | 203 | 1.6 | 1.6 | 0.00 | 0.00 | 0.00 | 35 | 1016.2 |
| 20260905200458 | 36 | 147 | 0.0 | 0.0 | 0.00 | 0.00 | 0.00 | 36 | 1016.3 |
| 20260905195956 | 36 | 146 | 0.0 | 1.6 | 0.00 | 0.00 | 0.00 | 37 | 1016.5 |
| 20260905195451 | 36 | 166 | 0.0 | 1.6 | 0.00 | 0.00 | 0.00 | 38 | 1016.4 |
| 20260905194947 | 36 | 197 | 0.0 | 3.2 | 0.00 | 0.00 | 0.00 | 37 | 1016.4 |
| 20260905194446 | 36 | 147 | 1.6 | 1.6 | 0.00 | 0.00 | 0.00 | 36 | 1016.5 |
| 20260905193941 | 36 | 147 | 0.0 | 3.2 | 0.00 | 0.00 | 0.00 | 36 | 1016.4 |
| 20260905193440 | 36 | 208 | 0.0 | 1.6 | 0.00 | 0.00 | 0.00 | 38 | 1016.6 |
| 20260905192936 | 36 | 202 | 1.6 | 3.2 | 0.00 | 0.00 | 0.00 | 40 | 1016.7 |
| 20260905192431 | 36 | 182 | 0.0 | 1.6 | 0.00 | 0.00 | 0.00 | 38 | 1016.6 |
| 20260905191926 | 36 | 148 | 0.0 | 0.0 | 0.00 | 0.00 | 0.00 | 38 | 1016.7 |
| 20260905191426 | 36 | 138 | 0.0 | 1.6 | 0.00 | 0.00 | 0.00 | 40 | 1016.9 |
| 20260905190926 | 36 | 137 | 3.2 | 4.8 | 0.00 | 0.00 | 0.00 | 38 | 1017.0 |
| 20260905190423 | 36 | 192 | 0.0 | 3.2 | 0.00 | 0.00 | 0.00 | 38 | 1017.2 |
| 20260905185922 | 36 | 187 | 0.0 | 1.6 | 0.00 | 0.00 | 0.00 | 38 | 1016.9 |
| 20260905185418 | 36 | 177 | 0.0 | 3.2 | 0.00 | 0.00 | 0.00 | 39 | 1017.2 |
| 20260905184916 | 35 | 142 | 0.0 | 1.6 | 0.00 | 0.00 | 0.00 | 40 | 1017.4 |
| 20260905184411 | 35 | 141 | 1.6 | 1.6 | 0.00 | 0.00 | 0.00 | 40 | 1017.5 |
| 20260905183909 | 36 | 198 | 0.0 | 0.0 | 0.00 | 0.00 | 0.00 | 40 | 1017.4 |
| 20260905183405 | 36 | 199 | 0.0 | 0.0 | 0.00 | 0.00 | 0.00 | 39 | 1017.3 |
| 20260905182859 | 36 | 199 | 0.0 | 4.8 | 0.00 | 0.00 | 0.00 | 37 | 1017.5 |
| 20260905182353 | 36 | 144 | 1.6 | 1.6 | 0.00 | 0.00 | 0.00 | 38 | 1017.6 |
| 20260905181849 | 36 | 206 | 1.6 | 4.8 | 0.00 | 0.00 | 0.00 | 42 | 1017.6 |
| 20260905181348 | 36 | 208 | 0.0 | 3.2 | 0.00 | 0.00 | 0.00 | 41 | 1017.9 |
| 20260905180847 | 36 | 191 | 0.0 | 1.6 | 0.00 | 0.00 | 0.00 | 39 | 1017.9 |
| 20260905180342 | 36 | 142 | 1.6 | 4.8 | 0.00 | 0.00 | 0.00 | 40 | 1017.9 |
| 20260905175837 | 36 | 146 | 0.0 | 1.6 | 0.00 | 0.00 | 0.00 | 41 | 1017.8 |
| 20260905175332 | 35 | 148 | 0.0 | 0.0 | 0.00 | 0.00 | 0.00 | 42 | 1018.0 |
| 20260905174827 | 35 | 191 | 0.0 | 0.0 | 0.00 | 0.00 | 0.00 | 41 | 1018.0 |
| 20260905174323 | 36 | 194 | 3.2 | 3.2 | 0.00 | 0.00 | 0.00 | 39 | 1018.1 |
| 20260905173818 | 36 | 167 | 1.6 | 1.6 | 0.00 | 0.00 | 0.00 | 40 | 1018.4 |
| 20260905173314 | 36 | 194 | 0.0 | 1.6 | 0.00 | 0.00 | 0.00 | 40 | 1018.2 |
| 20260905172808 | 36 | 196 | 3.2 | 3.2 | 0.00 | 0.00 | 0.00 | 42 | 1018.3 |